Location: Hasli
(46.6710°N, 7.6517°E)
Time: 06:14:21
(UTC+00:00)

Daily predictions for brighter satellites

Satellite Brightness Start Highest point End
(mag) Time Altitude Azimuth Time Altitude Azimuth Time Altitude Azimuth
USA 238 DEB 3.9 18:59:45 10° S 19:05:59 46° ESE 19:12:27 10° NE
USA 238 3.9 18:59:52 10° S 19:06:05 46° ESE 19:12:33 10° NE
Cosmos 1867 3.6 19:02:41 10° SSW 19:08:04 67° ESE 19:13:30 10° NE
MOS 1 Rocket 3.7 19:03:01 10° NNE 19:08:28 87° WNW 19:13:42 10° SSW
CENTAUR R/B 3.2 19:04:58 10° S 19:09:53 29° ESE 19:15:30 10° NE
Cosmos 1666 Rocket 3.9 19:06:11 10° SSE 19:10:17 44° E 19:14:26 10° NNE
Cosmos 1954 Rocket 4.3 19:07:51 10° S 19:12:54 46° ESE 19:17:59 10° NNE
DMSP B5D2-2 4.2 19:09:40 10° NNE 19:14:49 56° E 19:19:58 10° S
IRIDIUM 103 4.3 19:11:16 10° S 19:16:29 81° E 19:21:44 10° N
FREGAT/IRIS 2.4 19:14:25 10° S 19:17:02 73° WSW 19:19:40 10° NNW
Cosmos 1821 Rocket 4.0 19:11:36 10° S 19:17:45 78° E 19:24:02 10° N
Ariane Rocket 3.2 19:13:03 10° S 19:18:06 76° WSW 19:23:11 10° NNW
Cosmos 405 Rocket 4.3 19:15:51 10° SE 19:18:17 17° E 19:20:46 10° NE
Intercosmos 25 2.9 19:15:18 10° N 19:19:02 82° E 19:22:12 10° S
Cosmos 1812 3.2 19:16:45 10° NNW 19:20:34 62° W 19:24:20 10° S
Cosmos 1805 Rocket 4.0 19:16:27 10° SSW 19:20:52 70° W 19:25:21 10° N
Cosmos 407 Rocket 3.9 19:17:57 10° SSW 19:23:15 74° WNW 19:28:33 10° NNE
SJ-6B 3.1 19:22:05 10° S 19:26:05 72° WSW 19:30:01 10° NNW
Cosmos 1190 Rocket 4.2 19:22:09 10° SSW 19:27:27 82° WNW 19:32:48 10° NNE
NOSS 2 (A) 3.9 19:25:44 10° NW 19:28:18 87° NE 19:30:20 13° SE
deb Kosmos-1763 4.1 19:25:06 10° SSW 19:28:43 85° WNW 19:32:24 10° NNE
Cosmos 1763 Rocket 4.4 19:23:50 10° N 19:28:43 35° ENE 19:33:12 12° ESE
Cosmos 1140 Rocket 3.7 19:24:02 10° SSW 19:29:17 82° WNW 19:34:34 10° NNE
Cosmos 1437 Rocket 4.5 19:27:13 10° NNE 19:29:43 17° ENE 19:31:55 11° ESE
FALCON 9 DEB 4.4 19:26:57 10° W 19:30:17 42° NNW 19:33:39 10° NE
Resurs 1-3 3.6 19:26:49 10° SSE 19:31:09 66° ENE 19:35:31 10° N
OBJECT-B 0.8 19:30:29 10° SSE 19:33:45 75° ENE 19:37:03 10° N
Cosmos 2084 Rocket 4.1 19:31:05 10° S 19:34:46 31° ESE 19:38:33 10° ENE
Cosmos 1633 Rocket 3.0 19:32:43 10° S 19:37:06 72° E 19:41:31 10° NNE
Cosmos 1184 Rocket 2.9 19:34:45 10° S 19:37:58 55° E 19:41:13 10° NNE
Cosmos 921 Rocket 3.0 19:37:09 10° NNW 19:41:21 64° ENE 19:45:04 13° SSE
Cosmos 2123 Rocket 4.0 19:36:21 10° N 19:42:36 78° E 19:48:53 10° SSE
Cosmos 1535 Rocket 4.4 19:37:28 10° S 19:43:32 71° E 19:49:38 10° NNE
Meteor 1-27 Rocket 4.4 19:42:02 10° NNW 19:47:53 62° W 19:53:44 10° S
Cosmos 1605 Rocket 4.1 19:46:03 10° SSE 19:51:59 56° E 19:57:56 10° NNE
Okean 1 3.9 19:49:51 10° N 19:53:41 39° ENE 19:56:09 19° SE
CZ-2C R/B 3.1 19:49:18 10° N 19:54:26 65° WNW 19:59:38 10° SSW
NOSS 3-2 (A) 3.4 19:50:20 10° SW 19:56:02 88° NW 20:02:38 10° NE
USA 267 3.8 19:52:23 10° ENE 19:58:11 33° SE 20:03:57 10° SSW
Cosmos 2219 Rocket 4.3 19:55:16 10° N 19:58:14 14° NE 20:01:11 10° ENE
Cosmos 540 Rocket 4.4 19:56:57 10° N 20:01:39 33° ENE 20:04:39 19° ESE
SL-16 R/B 2.4 19:56:58 10° NNW 20:02:36 57° ENE 20:06:27 20° SE
SL-4 R/B 3.1 19:59:25 10° W 20:03:13 40° N 20:06:46 10° ENE
BREEZE-M DEB (TANK) 2.8 20:01:31 10° W 20:04:09 61° N 20:10:39 10° E
SL-27 R/B 3.0 20:04:28 26° SE 20:05:31 32° ESE 20:08:31 10° NE
Cosmos 2242 Rocket 3.7 20:02:00 10° N 20:06:22 56° ENE 20:09:08 21° SSE
NOSS 3-2 (C) 3.3 20:01:03 10° SSW 20:06:41 71° SE 20:13:11 10° NE
Cosmos 1470 Rocket 3.5 20:02:31 10° S 20:06:55 83° E 20:11:18 10° N
Cosmos 2082 Rocket 3.3 20:05:54 10° SW 20:11:21 47° WNW 20:16:51 10° NNE
BREEZE-M DEB (TANK) 2.5 20:09:09 10° WNW 20:11:43 44° N 20:12:31 26° ENE
ERS-1 Rocket 3.7 20:16:14 23° ESE 20:18:39 37° ENE 20:23:14 10° N
Meteor 1-14 Rocket 4.4 20:13:21 12° S 20:18:43 57° E 20:24:34 10° NNE
Cosmos 2322 Rocket 2.3 20:14:16 10° NNW 20:19:56 63° ENE 20:23:15 25° SE
Cosmos 1862 Rocket 4.4 20:17:22 10° NNW 20:21:40 49° W 20:25:55 10° SSW
Cosmos 1850 Rocket 3.9 20:18:27 10° SSW 20:23:43 75° ESE 20:28:59 10° NNE
Meteor 1-25 Rocket 4.3 20:19:57 10° SSW 20:25:31 79° WNW 20:31:13 10° N
Cosmos 1500 4.0 20:25:36 31° E 20:25:49 31° E 20:29:10 10° NNE
SPOT 1/Viking Rocket 3.6 20:23:32 25° SE 20:26:30 63° ENE 20:31:41 10° N
Cosmos 841 Rocket 3.8 20:22:16 10° NNW 20:27:26 55° ENE 20:29:56 29° SE
USA 32 4.2 20:22:57 10° SSW 20:28:10 72° W 20:33:25 10° N
Cosmos 2360 Rocket 2.8 20:23:38 10° NNW 20:29:03 43° NE 20:31:48 26° ESE
Terra 2.9 20:27:56 24° E 20:29:33 29° ENE 20:33:38 10° N
USA 276 2.0 20:26:25 10° WNW 20:29:36 79° SSW 20:30:10 56° SE
Meteor 1-18 Rocket 4.2 20:24:29 10° NNW 20:30:05 88° W 20:33:52 21° S
X-37B 1.3 20:27:18 10° W 20:30:15 37° SSW 20:30:22 37° SSW
IGS 5A 3.4 20:29:39 30° SSE 20:31:42 86° ENE 20:35:53 10° NNW
ATLAS 3B R/B 2.9 20:25:44 10° S 20:31:51 42° ESE 20:38:00 10° NE
Cosmos 1238 Rocket 2.9 20:30:32 17° SSW 20:32:33 51° W 20:35:32 10° N
USA 234 3.8 20:29:00 16° E 20:34:12 53° NNE 20:40:31 10° NW
Cosmos 468 Rocket 4.4 20:31:10 10° NNW 20:36:25 62° WSW 20:39:42 22° S
Cosmos 1666 4.5 20:37:36 18° ENE 20:37:36 18° ENE 20:39:26 10° NE
Cosmos 1980 Rocket 4.0 20:32:58 10° NW 20:37:33 26° WSW 20:42:06 10° SSW
Cosmos 44 3.3 20:33:22 10° NW 20:38:19 88° WSW 20:40:36 34° SSE
Resurs 01 Rocket 2.9 20:34:56 12° SSW 20:38:45 38° W 20:42:55 10° NNW
Iridium 4 Rocket 3.9 20:38:44 29° E 20:38:59 30° E 20:42:38 10° NNE
Lacrosse 5 2.4 20:34:46 10° WNW 20:39:39 47° SW 20:41:50 29° S
Cosmos 1602 4.2 20:37:45 14° SSW 20:41:01 62° W 20:44:56 10° N
CARTOSAT-1 3.8 20:40:31 39° SE 20:41:47 54° ENE 20:46:01 10° N
Cosmos 1153 Rocket 4.4 20:36:52 13° S 20:42:28 86° E 20:48:43 10° N
GP-B 4.0 20:40:26 10° N 20:44:44 49° W 20:48:36 12° SSW
CZ-4B DEB 4.3 20:46:38 61° E 20:46:47 62° ENE 20:50:06 10° N
Cosmos 1933 Rocket 4.3 20:43:12 10° SSW 20:47:31 54° WNW 20:51:55 10° N
Cosmos 2061 Rocket 4.4 20:50:46 33° SE 20:52:39 42° E 20:58:25 10° NNE
Cosmos 405 Rocket 4.2 20:50:33 10° SW 20:53:59 35° WNW 20:57:29 10° N
Spot 2 Rocket 3.8 20:51:17 26° S 20:54:06 64° WSW 20:59:10 10° NNW
Cosmos 1814 Rocket 4.0 20:49:54 10° NNW 20:55:09 75° ENE 20:56:56 42° SE
COSMOS 2428 4.1 20:50:31 10° N 20:55:20 27° NE 20:57:48 20° E
Cosmos 1802 Rocket 4.2 20:54:59 34° SSE 20:57:35 55° E 21:03:45 10° NNE
Cosmos 1515 4.3 20:54:42 10° NNW 20:58:26 52° W 20:59:36 36° SSW
Cosmos 1869 Rocket 3.5 20:57:44 44° S 20:59:07 81° E 21:03:37 10° N
Cosmos 2237 Rocket 4.4 20:56:11 10° N 20:59:15 15° NE 21:02:18 10° ENE
CENTAUR R/B 3.0 20:53:57 10° SW 20:59:55 64° NW 21:07:06 10° NE
Okean 1-7 3.4 20:56:03 10° NNW 21:00:18 60° W 21:01:51 36° SSW
Cosmos 1437 Rocket 3.8 21:02:37 10° NNW 21:06:10 39° W 21:07:19 30° SW
Cosmos 1570 Rocket 4.3 21:07:53 10° NNW 21:13:10 64° WSW 21:14:58 40° S
Cosmos 2333 Rocket 3.0 21:08:08 10° NNW 21:13:35 41° NE 21:15:19 33° E
ATLAS 5 CENTAUR R/B 2.5 21:10:58 10° NNW 21:13:44 54° NE 21:14:58 41° E
SPOT 5 2.6 21:17:39 60° SSW 21:18:21 76° WSW 21:22:48 10° NNW
Cosmos 1066 Rocket 4.5 21:15:01 10° N 21:20:32 50° ENE 21:21:30 45° ESE
Meteor 1-5 Rocket 4.3 21:18:35 33° SSW 21:21:29 86° W 21:27:25 10° N
Cosmos 2208 Rocket 4.3 21:19:29 10° NNW 21:24:40 60° WSW 21:25:58 45° SSW
Cosmos 1733 Rocket 3.4 21:29:41 50° ENE 21:29:41 50° ENE 21:33:28 10° NNE
ERBS 4.1 21:27:25 10° NW 21:30:13 25° NNE 21:30:13 25° NNE
Meteor 1-11 Rocket 3.6 21:31:46 53° S 21:33:12 82° E 21:39:02 10° NNE
Cosmos 968 Rocket 4.0 21:37:25 41° ENE 21:37:25 41° ENE 21:41:29 10° NNE
Lacrosse 4 Rocket 1.7 21:37:37 58° NE 21:37:37 58° NE 21:41:02 10° NNE
Tsikada Rocket 4.0 21:31:02 10° N 21:37:23 71° E 21:38:46 54° SE
Cosmos 2100 Rocket 4.4 21:36:57 24° SSW 21:40:36 57° WNW 21:46:41 10° N
USA 267 3.2 21:35:03 10° NE 21:41:38 83° NW 21:48:11 10° WSW
Cosmos 540 Rocket 4.5 21:38:33 10° NW 21:43:16 36° WSW 21:44:28 32° SW
SL-4 R/B 2.7 21:39:38 10° WNW 21:42:58 44° N 21:42:58 44° N
Cosmos 2219 Rocket 2.4 21:37:50 10° NNW 21:43:29 59° ENE 21:44:23 52° E
Cosmos 2173 Rocket 4.4 21:41:11 26° SW 21:44:36 56° WNW 21:50:37 10° N
SL-16 R/B 3.8 21:41:48 10° NW 21:46:17 25° WSW 21:48:20 20° SW
Cosmos 1242 Rocket 3.6 21:48:17 10° NNW 21:50:53 44° NNW 21:50:53 44° NNW
Meteor 1-23 Rocket 4.1 21:50:38 10° NNW 21:56:30 89° WSW 21:57:14 70° S
Cosmos 2322 3.5 21:51:11 10° NNW 21:56:52 82° WSW 21:57:25 72° S
Cosmos 1725 Rocket 4.0 21:55:18 50° SSW 21:57:05 80° W 22:03:28 10° N
ERS-1 Rocket 4.3 21:56:14 27° WSW 21:57:28 31° W 22:01:56 10° NNW
Spot 4 4.3 21:58:19 49° ENE 21:58:19 49° ENE 22:02:48 10° N
Cosmos 1833 4.5 21:58:11 36° SW 22:00:28 66° WNW 22:06:09 10° NNE
Cosmos 836 Rocket 4.3 21:56:55 10° NNW 22:02:10 86° ENE 22:02:12 86° E
Cosmos 1536 3.7 22:03:04 48° NW 22:03:04 48° NW 22:06:24 10° N
Cosmos 2322 Rocket 3.9 21:59:12 10° NW 22:03:29 22° W 22:05:03 20° WSW
Cosmos 2016 Rocket 4.4 22:02:20 36° SW 22:04:49 59° WNW 22:11:09 10° N
Cosmos 1378 Rocket 3.9 22:01:07 10° N 22:04:52 61° N 22:04:52 61° N
Terra 2.8 22:06:49 36° WSW 22:07:11 36° W 22:11:35 10° NNW
COSMOS 2487 4.4 22:12:28 28° NNW 22:12:28 28° NNW 22:14:37 10° N
Cosmos 2333 4.3 22:06:02 10° NNW 22:11:46 64° WSW 22:12:06 62° SW
Cosmos 1666 4.3 22:12:27 30° WNW 22:12:27 30° WNW 22:15:28 10° N
Cosmos 2360 Rocket 3.2 22:07:54 10° NW 22:12:56 34° WSW 22:13:33 33° WSW
SL-16 R/B 4.3 22:11:00 10° N 22:15:01 19° NE 22:17:40 14° ENE
USA 234 3.2 22:16:20 61° S 22:17:08 67° SW 22:23:39 10° NW
ATLAS 3B R/B 3.4 22:16:04 10° WSW 22:22:26 50° NW 22:28:55 10° NNE
MOS 1-B Rocket 3.7 22:17:02 10° NNE 22:22:40 84° WNW 22:23:10 75° SW
Cosmos 1354 Rocket 4.3 22:23:58 57° ENE 22:23:58 57° ENE 22:28:25 10° NNE
Cosmos 1975 Rocket 4.2 22:24:00 10° N 22:27:17 39° NE 22:27:17 39° NE
Cosmos 2297 Rocket 3.7 22:32:11 24° ENE 22:32:11 24° ENE 22:35:16 10° NE
Meteor 1-21 4.5 22:27:16 10° N 22:33:00 59° ENE 22:33:00 59° ENE
Cosmos 1743 4.3 22:35:20 35° NNW 22:35:20 35° NNW 22:37:46 10° N
Cosmos 1975 4.5 22:36:14 30° NNE 22:36:14 30° NNE 22:38:25 10° NNE
Cosmos 2233 Rocket 4.2 22:34:08 54° SW 22:35:17 64° W 22:41:36 10° N
Thor Agena Rocket 3.6 22:30:31 10° NNE 22:35:03 70° NNE 22:35:03 70° NNE
Cosmos 1980 4.0 22:31:09 10° NNW 22:36:46 58° ENE 22:36:58 58° ENE
Timation 2 Rocket 4.2 22:39:51 53° E 22:39:51 53° E 22:44:58 10° NE
COSMOS 2428 2.9 22:34:23 10° NNW 22:39:49 61° W 22:39:49 61° W
Cosmos 44 Rocket 4.2 22:39:12 10° NW 22:42:56 43° WNW 22:42:56 43° WNW
Cosmos 2237 Rocket 2.4 22:38:55 10° NNW 22:44:33 62° ENE 22:44:34 62° ENE
Cosmos 2219 4.1 22:46:31 36° ENE 22:46:31 36° ENE 22:50:21 10° NE
Cosmos 1464 Rocket 4.0 22:46:12 64° E 22:46:12 64° E 22:52:14 10° NNE
NOSS 0 Rocket 3.8 22:45:29 10° NNW 22:51:47 83° WSW 22:51:50 83° SW
Nadezhda 4 Rocket 4.2 22:48:30 10° N 22:54:41 56° ENE 22:54:56 56° E
Geosat 4.5 22:58:12 55° WNW 22:58:12 55° WNW 23:02:19 10° NNW
Cosmos 2333 Rocket 3.2 22:52:33 10° NW 22:57:19 36° W 22:57:19 36° W
Cosmos 1503 Rocket 4.4 22:58:15 58° WNW 22:58:17 58° WNW 23:03:35 10° NNE
Cosmos 1513 Rocket 4.4 23:07:07 84° SSW 23:07:21 88° W 23:13:50 10° N
DNEPR-1 R/B 4.3 23:09:34 10° NW 23:14:43 65° NNW 23:14:43 65° NNW
ALOS 2 3.9 23:17:00 36° NW 23:17:00 36° NW 23:19:51 10° NNW
Lacrosse 4 Rocket 4.1 23:13:51 11° WNW 23:16:04 16° NW 23:18:39 10° N
Cosmos 1092 Rocket 4.3 23:10:23 10° N 23:16:27 52° ENE 23:16:44 51° E
Helios 1A 4.4 23:18:09 37° N 23:18:09 37° N 23:20:54 10° N
Cosmos 2034 Rocket 3.9 23:19:27 81° E 23:19:27 81° E 23:25:49 10° N
Cosmos 1072 Rocket 4.5 23:20:38 67° W 23:20:46 68° W 23:26:53 10° N
Cosmos 2227 Rocket 2.7 23:22:00 51° ENE 23:22:00 51° ENE 23:26:31 10° NNE
USA 267 4.4 23:18:10 10° NE 23:24:13 42° NNW 23:30:17 10° W
Cosmos 2219 Rocket 3.8 23:22:33 10° NW 23:26:05 23° W 23:26:05 23° W
Meteor 1-12 Rocket 4.4 23:28:42 74° ENE 23:28:42 74° ENE 23:34:26 10° NNE
Resurs 1-4 Rocket 4.5 23:33:48 10° ENE 23:35:23 11° E 23:35:32 11° E
Cosmos 1607 3.9 23:40:56 10° NW 23:47:25 88° SW 23:47:25 88° SW
Cosmos 2082 4.2 23:48:47 50° ENE 23:48:47 50° ENE 23:53:21 10° NE
Cosmos 1375 Rocket 4.5 23:48:19 78° ESE 23:48:19 78° ESE 23:54:52 10° NE
USA 229 DEB 4.3 23:53:16 39° ESE 23:53:16 39° ESE 23:58:53 10° NE
USA 229 4.3 23:53:24 38° ESE 23:53:24 38° ESE 23:58:58 10° NE
Helios 1B rocket 4.2 23:52:04 10° NNE 23:54:18 28° NE 23:54:18 28° NE
